Location: Fort Worth, Tx
(32.7431°N, 97.3695°W)
Time: 15:29:01
(UTC-04:00)

Altair - Pass Details

Date: 07 October 2023
Orbit: 1501 x 1682 km, 47.2° (Epoch: 02 October)

Event Time Altitude Azimuth Distance (km) Brightness Sun altitude
Exits shadow 07:57:09 - 305° (NW) 4,881 9.6 -7.2°
Rises 07:57:14 0° 306° (NW) 4,858 9.6 -7.2°
Reaches altitude 10° 08:00:27 10° 310° (NW) 3,891 9.2 -6.5°
Maximum altitude 08:10:17 56° 28° (NNE) 1,936 8.3 -4.5°
Drops below altitude 10° 08:20:13 10° 105° (ESE) 3,939 11.6 -2.4°
Sets 08:23:29 0° 109° (ESE) 4,921 12.2 -1.7°
